METEOR 2-17

Satellite information

Favourite Embed

Satellite Type and Status

PAYLOADIN ORBIT

Key statistics

Satellite METEOR 2-17 at a glance.

Uptime

13728

Days in orbit

Revolutions

≈ 13.9

Per day

Orbit

LEO

Low Earth Orbit

Inclination

82.5

Latest

Satellite identification and parameters

Extended collection of information and parameters for METEOR 2-17.

Object identification

Identified? True

Debris? False

Object name: METEOR 2-17

International designator: 1988-005A

Object number (NORAD): 18820

Object ID (CCSDS): 18820

Country: COMMONWEALTH OF INDEPENDENT STATES (CIS)

Current information (Y/N): Y

RCS size: LARGE

Orbital parameters

Period: 103.924 minutes

Inclination: 82.544 deg

SMA: 7322.133 km

Apoapsis: 955.982 km

Periapsis: 932.013 km

RAAN: 195.6953 deg

Eccentricy: 0.00163675

Argument of periapsis: 174.159 deg

Mean anomaly: 248.685 deg

Mean motion: 13.85627101 rev/day

Mean motion (dot): 0.00000123 rev/day2

B* drag term: 0.000094423311 1/REarth

Two-line elements (TLE)

Creation date: Aug. 30, 2025, 3:38 a.m.

Reference frame: TEME

Reference center: EARTH

Epoch: Aug. 29, 2025, 11:04 p.m. UTC

TLE line 0: 0 METEOR 2-17

TLE line 1: 1 18820U 88005A 25241.96146931 .00000123 00000-0 94423-4 0 9995

TLE line 2: 2 18820 82.5440 195.6953 0016368 174.1590 248.6850 13.85627101899859

Live tracking on map

Real-time ground track for satellite METEOR 2-17.

In-orbit conjunctions

A list of the most updated potential collisions computed for object METEOR 2-17.

Target Orbit TCA Probability of collision Miss distance Type
COSMOS 1275 DEB LEO 2025-03-21 15:39:28 0.0001300313 541.0 (m) DEBRIS
DMSP 5D-2 F13 DEB SSO 2024-11-22 11:09:35 0.0002553741 213.0 (m) DEBRIS
FENGYUN 1C DEB SSO 2024-10-13 10:08:40 0.0001867939 532.0 (m) DEBRIS
COSMOS 1677 LEO 2024-10-07 02:36:47 0.0001746102 208.0 (m) PAYLOAD
THORAD AGENA D DEB SSO 2024-09-24 18:54:39 0.0001372839 278.0 (m) DEBRIS

Associated space launch

Second generation soviet meteorological satellite

METEOR 2-17 was lifted into orbit during the mission ‘Tsiklon-3 | Meteor-2 17’, on board a Tsiklon-3 space rocket.

The launch took place on Jan. 30, 1988, 10:59 a.m. from 32/1.

For more information about the launch, click the button.

Launch to space Tsiklon-3 | Meteor-2 17
Tsiklon-3 | Meteor-2 17

Agency: N/A

Status: Launch Successful

Launch date: Jan. 30, 1988, 10:59 a.m. UTC

Rocket: Tsiklon-3

Launch pad: 32/1

Location: Plesetsk Cosmodrome, Russian Federation

...

Latest news about this satellite

There are no fresh news available about this satellite. Check back as we update our databases every day.


Newsletter sign-up

Weekly statistics, charts and insights to help you stay on top of the space industry.